Location: Rockford
(42.2710°N, 89.0940°W)
Time: 05:23:28
(UTC-05:00)

SPOT 5 - Visible Passes

Search period start: 28 May 2017 00:00
Search period end: 07 June 2017 00:00
Orbit: 623 x 816 km, 98.4° (Epoch: 27 May)

Date Brightness Start Highest point End Pass type
(mag) Time Alt. Az. Time Alt. Az. Time Alt. Az.
28 May 2.6 22:07:20 23° SSE 22:09:59 86° W 22:14:24 10° NNW visible
29 May 3.8 21:16:39 11° SE 21:20:07 28° ENE 21:23:54 10° N visible
29 May 4.3 22:55:53 17° SW 22:58:11 26° W 23:01:52 10° NW visible
30 May 2.5 22:05:12 22° SSE 22:07:58 90° N 22:12:24 10° NNW visible
31 May 3.9 21:14:31 10° SE 21:18:07 27° ENE 21:21:52 10° N visible
31 May 4.2 22:53:44 17° SW 22:56:09 27° W 22:59:56 10° NW visible
01 Jun 2.6 22:03:03 21° SSE 22:05:56 86° ENE 22:10:25 10° NNW visible
02 Jun 3.9 21:12:31 10° ESE 21:16:07 26° ENE 21:19:50 10° N visible
02 Jun 4.2 22:51:37 17° SW 22:54:06 29° W 22:58:00 10° NW visible
03 Jun 2.6 22:00:55 20° SSE 22:03:55 81° ENE 22:08:26 10° NNW visible
04 Jun 4.0 21:10:33 10° ESE 21:14:07 25° ENE 21:17:49 10° N visible
04 Jun 4.1 22:49:28 17° SSW 22:52:05 30° W 22:56:04 10° NW visible
05 Jun 2.6 21:58:46 19° SSE 22:01:54 77° ENE 22:06:27 10° N visible
06 Jun 4.1 21:08:36 10° ESE 21:12:08 24° ENE 21:15:48 10° NNE visible
06 Jun 4.0 22:47:20 17° SSW 22:50:03 32° W 22:54:09 10° NNW visible
